{"data":{"norad_id":65178,"epoch":"2026-09-20T14:41:21.871680Z","epoch_age_seconds":111157,"freshness":"FRESH","line1":"1 65178U 25175E   26263.61205870  .00009638  00000+0  30040-3 0  9990","line2":"2 65178  97.2843 132.6432 0002357  90.2096 269.9417 15.33451235 62150","mean_motion":15.33451235,"eccentricity":0.0002357,"inclination_deg":97.2843,"raan_deg":132.6432,"arg_perigee_deg":90.2096,"mean_anomaly_deg":269.9417,"bstar":0.0003004,"rev_number":6215,"period_min":93.905822834986,"perigee_km":463.91157252301,"apogee_km":467.13767461236,"semimajor_km":6843.6616235677,"source":"CELESTRAK","updated_at":"2026-09-21T09:00:35.528058Z"}}